Observations for Trim Patrick St
| Time | AQI | Temp °C | Hum % | Pres Pa | CO μg/m³ | H₂S μg/m³ | NO μg/m³ | NO₂ μg/m³ | O₃ μg/m³ | SO₂ μg/m³ | PM1 μg/m³ | PM2.5 μg/m³ | PM10 μg/m³ |
|---|---|---|---|---|---|---|---|---|---|---|---|---|---|
| Saturday 8 August 2026 | |||||||||||||
| 12:27 | 1 | 28.9 | 39 | 69,157 | 0 | 0 | 0.99 | 9.73 | 68.03 | 10.13 | 2 | 7.88 | 8.67 |
| 12:26 | 2 | 28.8 | 39 | 69,155 | 0 | 0 | 1 | 9.83 | 64.38 | 9.78 | 2.86 | 7.87 | 8.65 |
| 12:25 | 1 | 28.7 | 39 | 69,149 | 0 | 0 | 1.01 | 9.98 | 70.05 | 10.71 | 2 | 7.13 | 7.84 |
| 12:24 | 1 | 28.6 | 39 | 69,147 | 0 | 0 | 1.02 | 9.31 | 51.87 | 9.53 | 2 | 7.1 | 7.81 |
| 12:23 | 2 | 28.5 | 40 | 69,139 | 0 | 0 | 1.02 | 9.84 | 68.43 | 10.08 | 2.86 | 7.84 | 8.62 |
| 12:22 | 2 | 28.4 | 40 | 69,132 | 0 | 0 | 1.04 | 13.16 | 94.45 | 11.14 | 2.86 | 7.84 | 8.62 |
| 12:21 | 1 | 28.3 | 40 | 69,120 | 0 | 0 | 1.06 | 10.16 | 64.56 | 9.11 | 2 | 7.06 | 7.77 |
| 12:20 | 1 | 28.2 | 40 | 69,110 | 0 | 0 | 1.06 | 9.85 | 53.1 | 9.67 | 2.86 | 8.59 | 9.45 |
| 12:19 | 1 | 28.2 | 40 | 69,100 | 0 | 0 | 1.04 | 9.28 | 64.85 | 9.61 | 2 | 7.8 | 8.58 |
| 12:18 | 1 | 28.1 | 40 | 69,114 | 0 | 0 | 1.06 | 9.85 | 92.33 | 10.71 | 2.86 | 7.8 | 8.58 |
| 12:17 | 1 | 28 | 40 | 69,102 | 0 | 0 | 1.11 | 10.24 | 72.79 | 9.85 | 2 | 7.84 | 8.62 |
| 12:16 | 1 | 28 | 40 | 69,086 | 0 | 0 | 1.11 | 10.25 | 69.1 | 10.03 | 2 | 7.86 | 8.65 |
| 12:15 | 1 | 28 | 40 | 69,098 | 0 | 0 | 1.08 | 10.23 | 66.29 | 9.3 | 2 | 7.03 | 7.73 |
| 12:14 | 1 | 28 | 40 | 69,116 | 0 | 0 | 1.08 | 10.27 | 67.36 | 9.54 | 2 | 7.82 | 8.6 |
| 12:13 | 1 | 28 | 40 | 69,108 | 0 | 0 | 1.08 | 7.27 | 65.23 | 10.2 | 2 | 7.82 | 8.6 |
| 12:12 | 1 | 28 | 40 | 69,096 | 0 | 0 | 1.09 | 8.5 | 61.61 | 9.68 | 2.86 | 7.84 | 8.63 |
| 12:11 | 1 | 28 | 40 | 69,110 | 0 | 0 | 1.08 | 10.17 | 62.76 | 9.88 | 2.86 | 8.6 | 9.46 |
| 12:10 | 1 | 27.9 | 41 | 69,126 | 0 | 0 | 1.09 | 10.23 | 63.63 | 9.87 | 2.86 | 7.78 | 8.56 |
| 12:09 | 1 | 27.9 | 41 | 69,118 | 0 | 0 | 1.09 | 10.17 | 73.02 | 9.18 | 2 | 6.99 | 7.69 |
| 12:08 | 1 | 27.9 | 40 | 69,108 | 0 | 0 | 1.09 | 9.99 | 57.51 | 9.54 | 2 | 7.03 | 7.73 |